Weather History for Altus, OK

Change the Weather History Date:

Thursday, June 27, 2013

  Actual Average (KLTS) Record (KLTS)
Temperature  
Mean Temperature 92 °F -  
Max Temperature 108 °F 90 °F 108 °F (2013)
Min Temperature 76 °F 69 °F 57 °F (2006)
Cooling Degree Days 26    
Growing Degree Days 42 (Base 50)    
Moisture  
Dew Point 60 °F    
Average Humidity 39    
Maximum Humidity 72    
Minimum Humidity 14    
Precipitation  
Precipitation 0.00 in - - ()
Sea Level Pressure  
Sea Level Pressure 29.95 in    
Wind  
Wind Speed 10 mph (SSE)    
Max Wind Speed 37 mph    
Max Gust Speed 46 mph    
Visibility 10 miles    
Events      
Averages and records for this station are not official NWS values.
T = Trace of Precipitation, MM = Missing Value Source: NWS Daily Summary

Daily Weather History Graph

Daily Weather History Graph

Search for Another Location

Airport:

Trip Planner

Search our weather history database for the weather conditions in past years. The results will help you decide how hot, cold, wet, or windy it might be!

Date:

Astronomy

Jun. 27, 2013 Rise Set
Actual Time 6:26 AM CDT 8:54 PM CDT
Civil Twilight 5:56 AM CDT 9:24 PM CDT
Nautical Twilight 5:20 AM CDT 10:00 PM CDT
Astronomical Twilight 4:40 AM CDT 10:40 PM CDT
Moon No Moon Rise 11:16 AM CDT (6/27)
Length of Visible Light 15h 27m
Length of Day
14h 28m
Waning Gibbous, 76% of the Moon is Illuminated
Jun 27
Waning Gibbous
Jun 29
Last Quarter
Jul 8
New
Jul 15
First Quarter
Jul 22
Full

Hourly Weather History & Observations

Time (CDT) Temp. Heat Index Dew Point Humidity Pressure Visibility Wind Dir Wind Speed Gust Speed Precip Events Conditions
12:15 AM 85.5 °F 87.4 °F 65.5 °F 51% 29.92 in 10.0 mi ESE 9.2 mph - N/A   Clear
12:35 AM 84.6 °F 86.8 °F 66.2 °F 54% 29.92 in 10.0 mi ESE 11.5 mph - N/A   Clear
12:55 AM 84.0 °F 86.5 °F 66.6 °F 56% 29.92 in 10.0 mi ESE 10.4 mph - N/A   Clear
1:15 AM 83.5 °F 86.2 °F 67.1 °F 58% 29.93 in 10.0 mi ESE 9.2 mph - N/A   Clear
1:35 AM 83.3 °F 85.9 °F 67.1 °F 58% 29.92 in 10.0 mi ESE 10.4 mph - N/A   Clear
1:55 AM 82.8 °F 85.3 °F 67.3 °F 59% 29.92 in 10.0 mi ESE 8.1 mph - N/A   Clear
2:15 AM 82.4 °F 85.0 °F 67.1 °F 60% 29.92 in 10.0 mi ESE 8.1 mph - N/A   Clear
2:35 AM 82.9 °F 85.4 °F 66.6 °F 58% 29.92 in 10.0 mi SE 9.2 mph - N/A   Clear
2:55 AM 82.2 °F 84.6 °F 66.7 °F 59% 29.92 in 10.0 mi SE 6.9 mph - N/A   Clear
3:15 AM 80.8 °F 83.2 °F 67.1 °F 63% 29.92 in 10.0 mi East 8.1 mph - N/A   Clear
3:35 AM 79.7 °F - 67.3 °F 66% 29.93 in 10.0 mi East 9.2 mph - N/A   Clear
3:55 AM 79.3 °F - 67.1 °F 66% 29.93 in 10.0 mi ESE 8.1 mph - N/A   Clear
4:15 AM 78.8 °F - 67.1 °F 67% 29.94 in 10.0 mi East 8.1 mph - N/A   Clear
4:35 AM 78.6 °F - 67.1 °F 68% 29.94 in 10.0 mi ESE 6.9 mph - N/A   Clear
4:55 AM 77.9 °F - 66.7 °F 68% 29.94 in 10.0 mi ESE 6.9 mph - N/A   Clear
5:15 AM 78.3 °F - 66.4 °F 67% 29.94 in 10.0 mi ESE 6.9 mph - N/A   Clear
5:35 AM 78.3 °F - 66.6 °F 67% 29.94 in 10.0 mi ESE 8.1 mph - N/A   Clear
5:55 AM 77.4 °F - 66.6 °F 69% 29.95 in 10.0 mi East 8.1 mph - N/A   Clear
6:15 AM 76.8 °F - 66.7 °F 71% 29.96 in 10.0 mi ESE 8.1 mph - N/A   Clear
6:35 AM 76.3 °F - 66.7 °F 72% 29.96 in 10.0 mi ESE 8.1 mph - N/A   Clear
6:55 AM 76.6 °F - 66.4 °F 70% 29.97 in 10.0 mi ESE 5.8 mph - N/A   Clear
7:15 AM 77.2 °F - 66.4 °F 69% 29.97 in 10.0 mi ESE 6.9 mph - N/A   Clear
7:35 AM 78.3 °F - 66.6 °F 67% 29.97 in 10.0 mi SSE 6.9 mph - N/A   Clear
7:55 AM 80.1 °F 82.1 °F 66.2 °F 62% 29.98 in 10.0 mi SSE 9.2 mph - N/A   Clear
8:15 AM 81.9 °F 83.7 °F 65.3 °F 57% 29.99 in 10.0 mi SSE 8.1 mph - N/A   Clear
8:35 AM 83.8 °F 85.6 °F 65.1 °F 53% 29.99 in 10.0 mi SSE 8.1 mph - N/A   Clear
8:55 AM 86.2 °F 87.6 °F 64.2 °F 48% 29.99 in 10.0 mi South 10.4 mph - N/A   Clear
9:15 AM 88.7 °F 89.8 °F 63.7 °F 43% 29.99 in 10.0 mi South 11.5 mph - N/A   Clear
9:35 AM 90.7 °F 92.1 °F 63.7 °F 41% 29.99 in 10.0 mi SSW 11.5 mph - N/A   Clear
9:55 AM 93.2 °F 94.5 °F 63.1 °F 37% 29.99 in 10.0 mi SSW 15.0 mph - N/A   Clear
10:15 AM 94.3 °F 95.3 °F 62.6 °F 35% 29.99 in 10.0 mi SSW 17.3 mph 23.0 mph N/A   Clear
10:35 AM 95.2 °F 96.3 °F 62.8 °F 34% 29.99 in 10.0 mi SSW 13.8 mph 19.6 mph N/A   Clear
10:55 AM 95.9 °F 96.6 °F 62.1 °F 32% 29.98 in 10.0 mi SW 15.0 mph 19.6 mph N/A   Clear
11:15 AM 97.0 °F 97.8 °F 61.9 °F 31% 29.99 in 10.0 mi SSW 11.5 mph 19.6 mph N/A   Clear
11:35 AM 97.5 °F 98.2 °F 61.7 °F 30% 29.99 in 10.0 mi SSW 15.0 mph - N/A   Clear
11:55 AM 98.6 °F 99.4 °F 61.7 °F 29% 29.98 in 10.0 mi SW 12.7 mph 16.1 mph N/A   Clear
12:15 PM 99.1 °F 99.8 °F 60.6 °F 28% 29.98 in 10.0 mi South 9.2 mph - N/A   Clear
12:35 PM 100.6 °F 100.5 °F 59.2 °F 25% 29.98 in 10.0 mi South 4.6 mph - N/A   Clear
12:55 PM 101.1 °F 100.8 °F 58.5 °F 24% 29.98 in 10.0 mi SW 5.8 mph - N/A   Clear
1:15 PM 102.0 °F 102.7 °F 59.9 °F 25% 29.97 in 10.0 mi South 8.1 mph - N/A   Clear
1:35 PM 102.9 °F 103.6 °F 59.7 °F 24% 29.97 in 10.0 mi South 11.5 mph 16.1 mph N/A   Clear
1:55 PM 103.6 °F 102.9 °F 56.5 °F 21% 29.97 in 10.0 mi SSE 11.5 mph 17.3 mph N/A   Clear
2:15 PM 103.1 °F 101.6 °F 54.3 °F 20% 29.97 in 10.0 mi SSW 8.1 mph - N/A   Clear
2:35 PM 104.9 °F 103.6 °F 54.7 °F 19% 29.97 in 10.0 mi SSW 8.1 mph 17.3 mph N/A   Clear
2:55 PM 104.9 °F 103.6 °F 55.2 °F 19% 29.96 in 10.0 mi South 6.9 mph 19.6 mph N/A   Clear
3:15 PM 105.6 °F 104.0 °F 54.3 °F 18% 29.95 in 10.0 mi South 11.5 mph 17.3 mph N/A   Clear
3:35 PM 107.1 °F 105.4 °F 53.6 °F 17% 29.95 in 10.0 mi South 9.2 mph 18.4 mph N/A   Clear
3:55 PM 106.2 °F - 52.2 °F 17% 29.94 in 10.0 mi South 8.1 mph - N/A   Clear
4:15 PM 107.4 °F - 52.0 °F 16% 29.94 in 10.0 mi SSW 12.7 mph - N/A   Clear
4:35 PM 106.5 °F 104.6 °F 53.2 °F 17% 29.93 in 10.0 mi SSW 8.1 mph - N/A   Clear
4:55 PM 107.8 °F - 50.5 °F 15% 29.92 in 10.0 mi South 10.4 mph 17.3 mph N/A   Clear
5:15 PM 107.6 °F - 49.6 °F 14% 29.92 in 10.0 mi South 11.5 mph 24.2 mph N/A   Clear
5:35 PM 107.2 °F - 49.1 °F 14% 29.90 in 10.0 mi South 10.4 mph 17.3 mph N/A   Clear
5:55 PM 107.6 °F - 48.2 °F 14% 29.89 in 10.0 mi SW 11.5 mph - N/A   Clear
6:15 PM 107.6 °F - 50.5 °F 15% 29.88 in 10.0 mi South 10.4 mph 17.3 mph N/A   Clear
6:35 PM 107.1 °F - 49.6 °F 15% 29.87 in 10.0 mi South 13.8 mph - N/A   Clear
6:55 PM 106.9 °F - 49.5 °F 15% 29.86 in 10.0 mi South 12.7 mph 18.4 mph N/A   Clear
7:15 PM 106.2 °F - 49.8 °F 15% 29.86 in 10.0 mi South 16.1 mph - N/A   Clear
7:35 PM 105.6 °F - 51.6 °F 17% 29.88 in 10.0 mi South 12.7 mph - N/A   Clear
7:55 PM 104.9 °F - 52.2 °F 17% 29.89 in 10.0 mi South 10.4 mph - N/A   Clear
8:15 PM 103.8 °F - 52.5 °F 18% 29.90 in 10.0 mi South 9.2 mph - N/A   Clear
8:35 PM 102.6 °F - 52.7 °F 19% 29.90 in 10.0 mi South 8.1 mph - N/A   Clear
8:55 PM 100.8 °F - 52.3 °F 20% 29.92 in 10.0 mi South 8.1 mph - N/A   Clear
9:15 PM 98.1 °F - 52.9 °F 22% 29.92 in 10.0 mi South 8.1 mph - N/A   Clear
9:35 PM 94.3 °F 92.1 °F 54.9 °F 26% 29.94 in 10.0 mi SE 6.9 mph - N/A   Clear
9:55 PM 93.4 °F 91.3 °F 54.7 °F 27% 29.95 in 10.0 mi East 4.6 mph - N/A   Clear
10:15 PM 91.6 °F 89.8 °F 55.8 °F 30% 29.98 in 10.0 mi NE 8.1 mph - N/A   Clear
10:35 PM 94.6 °F - 52.2 °F 24% 30.04 in 7.0 mi NNE 31.1 mph 38.0 mph N/A   Mostly Cloudy
10:55 PM 89.2 °F 88.2 °F 58.1 °F 35% 30.08 in 5.0 mi NE 35.7 mph 46.0 mph N/A   Haze
11:15 PM 85.6 °F 85.4 °F 59.9 °F 42% 30.09 in 10.0 mi NE 36.8 mph 43.7 mph N/A   Overcast
11:35 PM 85.1 °F 84.8 °F 59.9 °F 42% 30.09 in 10.0 mi ENE 24.2 mph 33.4 mph N/A   Mostly Cloudy
11:55 PM 84.6 °F 84.4 °F 59.9 °F 43% 30.08 in 10.0 mi ENE 21.9 mph 29.9 mph N/A   Scattered Clouds